Date String (YYYY-MM-DD hh:mm:ss) UTC,Instrument flags,Ambient pressure (hPa),Sample flow (lpm),Bypass flow (lpm),Sample temperature (°C),Ambient temperature (°C),ASC tube jacket temperature (°C),LED temperature (°C),Box temperature (°C),Sample RH (%),Span deviation,Mass concentration (μg/m³),Mass concentration (μg/m³),Mass concentration (μg/m³)
DateTimeUTC,F1_M11,P_M11,Q1_M11,Q2_M11,T1_M11,T2_M11,T3_M11,T4_M11,T5_M11,U1_M11,ZSPAN_M11,X0_M11,X2_M11,X1_M11
2022-05-03 03:00:00,,0824.1,4.99,0.00,23.9,23.1,00.0,32.9,25.6,22.6,0000.0,0006.69,0004.84,0004.69
2022-05-03 03:01:00,,0824.1,4.99,0.00,23.9,23.1,00.0,32.9,25.6,22.6,0000.0,0006.63,0004.85,0004.70
2022-05-03 03:02:00,,0824.1,5.00,0.00,23.9,23.1,00.0,32.9,25.6,22.6,0000.0,0006.56,0004.86,0004.72
2022-05-03 03:03:00,,0824.1,5.00,0.00,23.8,23.1,00.0,32.9,25.6,22.6,0000.0,0006.21,0004.86,0004.73
2022-05-03 03:04:00,,0824.1,4.99,0.00,23.8,23.1,00.0,32.9,25.6,22.6,0000.0,0006.32,0004.88,0004.75
2022-05-03 03:05:00,,0824.1,4.99,0.00,23.8,23.1,00.0,32.9,25.6,22.6,0000.0,0006.47,0004.88,0004.75
2022-05-03 03:06:00,,0824.1,5.01,0.00,23.8,23.1,00.0,32.9,25.6,22.5,0000.0,0006.40,0004.87,0004.74
2022-05-03 03:07:00,,0824.1,5.00,0.00,23.8,23.1,00.0,32.9,25.6,22.5,0000.0,0006.36,0004.85,0004.73
2022-05-03 03:08:00,,0824.2,4.99,0.00,23.8,23.1,00.0,32.8,25.6,22.5,0000.0,0006.32,0004.82,0004.71
2022-05-03 03:09:00,,0824.2,5.01,0.00,23.8,23.1,00.0,32.8,25.6,22.5,0000.0,0006.25,0004.79,0004.68
2022-05-03 03:10:00,,0824.2,5.01,0.00,23.8,23.1,00.0,32.8,25.6,22.4,0000.0,0006.14,0004.74,0004.63
2022-05-03 03:11:00,,0824.3,4.99,0.00,23.8,23.1,00.0,32.8,25.6,22.4,0000.0,0006.17,0004.71,0004.59
2022-05-03 03:12:00,,0824.3,5.00,0.00,23.8,23.1,00.0,32.8,25.6,22.5,0000.0,0006.12,0004.68,0004.56
2022-05-03 03:13:00,,0824.2,5.01,0.00,23.8,23.1,00.0,32.8,25.6,22.5,0000.0,0006.06,0004.65,0004.53
2022-05-03 03:14:00,,0824.2,5.00,0.00,23.8,23.2,00.0,32.8,25.6,22.4,0000.0,0006.29,0004.65,0004.50
2022-05-03 03:15:00,,0824.2,4.99,0.00,23.8,23.2,00.0,32.8,25.6,22.4,0000.0,0006.86,0004.61,0004.48
2022-05-03 03:16:00,,0824.2,5.00,0.00,23.9,23.2,00.0,32.8,25.6,22.5,0000.0,0007.23,0004.61,0004.46
2022-05-03 03:17:00,,0824.2,4.99,0.00,23.8,23.2,00.0,32.8,25.6,22.4,0000.0,0007.18,0004.61,0004.46
2022-05-03 03:18:00,,0824.2,5.01,0.00,23.9,23.2,00.0,32.8,25.6,22.4,0000.0,0007.13,0004.60,0004.45
2022-05-03 03:19:00,,0824.3,4.99,0.00,23.9,23.2,00.0,32.8,25.6,22.4,0000.0,0007.45,0004.61,0004.45
2022-05-03 03:20:00,,0824.3,4.99,0.00,23.9,23.2,00.0,32.8,25.6,22.4,0000.0,0007.78,0004.61,0004.45
2022-05-03 03:21:00,,0824.2,5.01,0.00,23.9,23.2,00.0,32.8,25.6,22.3,0000.0,0007.75,0004.59,0004.43
2022-05-03 03:22:00,,0824.2,5.00,0.00,23.9,23.2,00.0,32.8,25.7,22.4,0000.0,0007.70,0004.58,0004.42
2022-05-03 03:23:00,,0824.2,5.00,0.00,23.9,23.2,00.0,32.8,25.6,22.4,0000.0,0007.68,0004.56,0004.42
2022-05-03 03:24:00,,0824.2,4.99,0.00,23.9,23.2,00.0,32.8,25.6,22.3,0000.0,0007.65,0004.54,0004.41
2022-05-03 03:25:00,,0824.2,5.00,0.00,23.9,23.2,00.0,32.8,25.6,22.3,0000.0,0007.49,0004.50,0004.39
2022-05-03 03:26:00,,0824.2,5.01,0.00,23.9,23.2,00.0,32.8,25.6,22.3,0000.0,0006.83,0004.49,0004.38
2022-05-03 03:27:00,,0824.3,5.00,0.00,23.9,23.2,00.0,32.8,25.6,22.2,0000.0,0006.31,0004.46,0004.36
2022-05-03 03:28:00,,0824.2,5.00,0.00,23.9,23.2,00.0,32.8,25.6,22.3,0000.0,0007.05,0004.42,0004.33
2022-05-03 03:29:00,,0824.2,5.00,0.00,23.8,23.1,00.0,32.8,25.6,22.3,0000.0,0007.47,0004.41,0004.31
2022-05-03 03:30:00,,0824.1,5.01,0.00,23.8,23.1,00.0,32.8,25.6,22.3,0000.0,0007.08,0004.39,0004.30
2022-05-03 03:31:00,,0824.1,5.00,0.00,23.8,23.1,00.0,32.8,25.6,22.3,0000.0,0007.19,0004.39,0004.30
2022-05-03 03:32:00,,0824.1,5.00,0.00,23.8,23.1,00.0,32.8,25.6,22.3,0000.0,0007.39,0004.38,0004.30
2022-05-03 03:33:00,,0824.1,5.01,0.00,23.8,23.1,00.0,32.8,25.6,22.3,0000.0,0007.35,0004.36,0004.29
2022-05-03 03:34:00,,0824.1,4.99,0.00,23.8,23.1,00.0,32.8,25.6,22.3,0000.0,0007.33,0004.35,0004.28
2022-05-03 03:35:00,,0824.0,5.01,0.00,23.8,23.1,00.0,32.8,25.6,22.3,0000.0,0007.34,0004.35,0004.28
2022-05-03 03:36:00,,0824.1,4.99,0.00,23.8,23.1,00.0,32.8,25.5,22.4,0000.0,0007.41,0004.37,0004.29
2022-05-03 03:37:00,,0824.1,5.00,0.00,23.8,23.0,00.0,32.8,25.5,22.5,0000.0,0007.41,0004.38,0004.29
2022-05-03 03:38:00,,0824.1,5.00,0.00,23.8,23.0,00.0,32.8,25.5,22.6,0000.0,0007.40,0004.40,0004.31
2022-05-03 03:39:00,,0824.1,4.99,0.00,23.8,23.0,00.0,32.8,25.5,22.7,0000.0,0006.92,0004.44,0004.33
2022-05-03 03:40:00,,0824.1,5.01,0.00,23.7,23.0,00.0,32.8,25.5,22.7,0000.0,0006.16,0004.47,0004.36
2022-05-03 03:41:00,,0824.2,4.99,0.00,23.7,23.0,00.0,32.8,25.5,22.7,0000.0,0006.12,0004.48,0004.38
2022-05-03 03:42:00,,0824.2,4.99,0.00,23.7,23.0,00.0,32.8,25.5,22.7,0000.0,0005.75,0004.51,0004.39
2022-05-03 03:43:00,,0824.3,5.01,0.00,23.7,23.0,00.0,32.7,25.5,22.7,0000.0,0005.26,0004.52,0004.40
2022-05-03 03:44:00,,0824.3,4.99,0.00,23.7,23.0,00.0,32.7,25.5,22.7,0000.0,0005.39,0004.55,0004.41
2022-05-03 03:45:00,,0824.2,4.99,0.00,23.7,23.0,00.0,32.7,25.5,22.7,0000.0,0005.39,0004.55,0004.42
2022-05-03 03:46:00,,0824.2,5.00,0.00,23.7,23.0,00.0,32.7,25.5,22.7,0000.0,0005.44,0004.55,0004.40
2022-05-03 03:47:00,,0824.2,5.00,0.00,23.7,23.0,00.0,32.7,25.5,22.7,0000.0,0005.42,0004.52,0004.38
2022-05-03 03:48:00,,0824.1,5.00,0.00,23.7,23.0,00.0,32.7,25.5,22.7,0000.0,0005.32,0004.49,0004.36
2022-05-03 03:49:00,,0824.2,4.99,0.00,23.7,23.0,00.0,32.7,25.5,22.7,0000.0,0005.23,0004.46,0004.34
2022-05-03 03:50:00,,0824.2,5.01,0.00,23.7,23.0,00.0,32.7,25.5,22.7,0000.0,0005.27,0004.43,0004.31
2022-05-03 03:51:00,,0824.2,5.01,0.00,23.7,23.0,00.0,32.7,25.5,22.7,0000.0,0005.24,0004.39,0004.27
2022-05-03 03:52:00,,0824.2,4.99,0.00,23.7,23.1,00.0,32.7,25.5,22.6,0000.0,0005.39,0004.37,0004.24
2022-05-03 03:53:00,,0824.2,4.99,0.00,23.7,23.0,00.0,32.7,25.5,22.7,0000.0,0005.31,0004.33,0004.20
2022-05-03 03:54:00,,0824.1,5.01,0.00,23.7,23.0,00.0,32.7,25.5,22.7,0000.0,0005.24,0004.29,0004.17
2022-05-03 03:55:00,,0824.1,5.00,0.00,23.7,23.0,00.0,32.7,25.5,22.6,0000.0,0005.06,0004.23,0004.13
2022-05-03 03:56:00,,0824.2,4.99,0.00,23.7,23.0,00.0,32.7,25.5,22.6,0000.0,0005.02,0004.21,0004.12
2022-05-03 03:57:00,,0824.2,5.00,0.00,23.7,23.1,00.0,32.7,25.5,22.6,0000.0,0005.08,0004.21,0004.10
2022-05-03 03:58:00,,0824.3,5.00,0.00,23.7,23.1,00.0,32.7,25.5,22.6,0000.0,0005.06,0004.22,0004.10
2022-05-03 03:59:00,,0824.3,5.01,0.00,23.7,23.1,00.0,32.7,25.5,22.6,0000.0,0005.01,0004.21,0004.09
